Погода в Турийске

Украина / Волынская область     51°05′18″N   24°31′28″E
темп.,
°C
ветер,
м/с
пор.,
м/с
влажн.,
%
обл.,
%
осадки,
мм/ч
давл.,
гПа
погр.,
м
2 августа, пн
пн200:00+21ююв71571100 0.3 1004481
03:00+18ю413930 0.4 1003338
06:00+17зюз6149024 0.0 1003575
09:00+19з71083100 0.0 1006784
12:00+15з6119134 0.5 1009622
15:00+19з7966100 0.5 10101072
18:00+20з685948 0.0 10111379
21:00+16з35804 0.1 101182
3 августа, вт
вт300:00+15з35895 0.0 101390
03:00+13зюз34925 0.0 101449
06:00+12зюз37940 0.0 1014128
09:00+18з46665 0.0 1015423
12:00+22з56461 0.0 10151744
15:00+23з464397 0.0 10152193
18:00+21зюз3559100 0.0 1014176
21:00+19юз115649 0.0 101512
4 августа, ср
ср400:00+16ююз226799 0.0 101612
03:00+15юв2271100 0.0 101621
06:00+14ююв2289100 1.1 101626
09:00+17ююв3785100 2.7 1016284
12:00+22ююв6762100 0.0 1015955
15:00+24ююв555295 0.0 10141167
18:00+25ю2250100 0.0 10131404
21:00+17ссз4590100 1.0 101482
5 августа, чт
чт500:00+16св3489100 0.8 101469
03:00+16св129082 1.4 101313
06:00+16в359395 0.2 1012108
09:00+19в3582100 0.2 1012278
12:00+24в4556100 0.0 1011899
15:00+27вюв4450100 0.0 10101380
18:00+27вюв244793 0.0 10071289
21:00+22в51067100 0.0 1005203
6 августа, пт
пт600:00+20ююв4781100 0.9 1005203
03:00+18ююв51098100 3.0 1003461
06:00+18ююз815870 0.9 1003727
09:00+19ююз711795 0.9 1003777
12:00+20юз81171100 0.2 10041299
15:00+21юз8106563 0.7 10051342
18:00+21зюз8116648 0.3 10061255
21:00+17зюз410795 0.3 1007398